Regional Weather Roundup
Issued by NWS Austin/San Antonio, TX

Home | Current Version | Previous Version | Text Only | Print | Product List | Glossary On
Versions: 1 2 3 4 5 6 7 8 9 10 11 12 13 14 15 16 17 18 19 20 21 22 23 24 25 26 27 28 29 30 31 32 33 34 35 36 37 38 39 40 41 42 43 44 45 46 47 48 49 50
000
ASUS44 KEWX 201110
RWREWX
SOUTH TEXAS REGIONAL WEATHER ROUNDUP
NATIONAL WEATHER SERVICE AUSTIN/SAN ANTONIO TX
600 AM CDT SUN MAY 20 2018

NOTE: "FAIR" INDICATED FEW OR NO CLOUDS BELOW 12,000 FEET WITH NO
SIGNIFICANT WEATHER AND/OR OBSTRUCTIONS TO VISIBILITY.

* - THESE STATIONS ARE NOT NWS OR FAA STATIONS...AND ARE NOT SUBJECT
    TO NWS AND FAA QUALITY CONTROL.

TXZ171-172-183>190-201200-
TEXAS HILL COUNTRY AND EDWARDS PLATEAU

CITY           SKY/WX    TMP DP  RH WIND       PRES   REMARKS
JUNCTION       CLOUDY    69  69 100 CALM      29.97R
*LLANO         CLOUDY    73  70  88 CALM      30.00R
BURNET         CLOUDY    74  70  87 SE3       29.99R
*HORSESHOE BAY CLOUDY    75  70  84 CALM      29.95R
*KERRVILLE     CLOUDY    72  68  87 SE9G16    29.94R
*FREDERICKSBRG CLOUDY    71  68  88 SE3       29.95R
*ROCKSPRINGS   CLOUDY    70  66  88 SE16G23   30.00S
*BOERNE STAGE  CLOUDY    72  70  94 S8        29.94S
*CASTROVILLE   CLOUDY    74  73  96 SE5       29.93R
HONDO          CLOUDY    76  73  91 SE15G25   29.91R
*UVALDE        CLOUDY    73  71  92 SE10      29.91R
DEL RIO        CLOUDY    75  71  87 E10       29.88R
LAUGHLIN AFB   CLOUDY    75  70  84 SE12      29.89R
CARRIZO SPRGS  CLOUDY    75  72  88 SE12G21   29.87R
*EAGLE PASS    CLOUDY    77  70  78 E9G16     29.88R
*FAITH RANCH   CLOUDY    77  72  83 E15G24    29.87R
$$

TXZ173-191>194-202-209-217>225-228-201200-
CENTRAL AND SOUTH CENTRAL TEXAS

CITY           SKY/WX    TMP DP  RH WIND       PRES   REMARKS
GEORGETOWN     CLOUDY    75  71  87 SE8       29.97R
AUSTIN/BERGSTM CLOUDY    76  72  87 SE8       29.92R
AUSTIN/MABRY   CLOUDY    76  71  85 SE5       29.95R
*AUSTIN/EXEC   CLOUDY    75  75 100 NE6       29.95R
*LAGO VISTA    LGT RAIN  75  72  91 SE6       29.97R
SAN MARCOS     CLOUDY    75  72  90 SE9       29.92R
NEW BRAUNFELS  CLOUDY    76  72  87 SE8       29.89R
RANDOLPH AFB   MOCLDY    75  72  91 S12       29.91R
PT SAN ANTONIO CLOUDY    76  73  91 SE8       29.89R
SAN ANTONIO    CLOUDY    75  72  90 SE9       29.92R
STINSON FIELD  MOCLDY    77  74  90 SE7       29.89R
*LA GRANGE     CLOUDY    76  75  94 SE13G20   29.90R
*GIDDINGS      MOCLDY    73  70  90 SE8       29.94R
*GONZALES      CLOUDY    76  75  96 SE12G18   29.89R
$$

TXZ163>164-176>182-195>201-210>213-226-227-235-201200-
SOUTHEAST TEXAS

CITY           SKY/WX    TMP DP  RH WIND       PRES   REMARKS
COLLEGE STN    MOCLDY    75  73  93 SE14      29.92F
*BRYAN         MOCLDY    73  73 100 SE12G21   29.95S
*CALDWELL      MOCLDY    75  72  91 SE17      29.92R
*CROCKETT      MOCLDY    72  70  94 E5        30.02F
*BRENHAM       MOCLDY    76  74  95 SE14      29.94S
HUNTSVILLE     MOCLDY    75  71  87 E3        29.99S
CONROE         MOCLDY    71  71 100 CALM      30.00R
HOUSTON BUSH   FAIR      72  71  97 E8        29.98S
HOUSTON HOBBY  FAIR      75  75 100 SE3       29.97S
*HOUSTON SW AP FAIR      74  73  97 E5        29.98R
PEARLAND       FAIR      74  73  97 E3        29.99R
HOUSTON HOOKS  FAIR      74  72  93 CALM      29.98R
ELLINGTON FLD  PTCLDY    75  72  88 CALM      30.00
SUGAR LAND     FAIR      78  74  87 E3        29.98R
*HOUSTON EXEC  FAIR      75  75 100 E5        29.99R
*CLEVELAND MUN FAIR      69  67  93 CALM      30.01R FOG
*WHARTON       MOCLDY    73  71  94 E3        29.97R
*COLUMBUS      FAIR      74  73  95 SE10      29.95F
*EAGLE LAKE    PTSUNNY   75  74  98 SE6       29.97R
$$

TXZ214>216-236>238-201200-
THE UPPER TEXAS COAST

CITY           SKY/WX    TMP DP  RH WIND       PRES   REMARKS
*ORANGE        FAIR      72  72 100 CALM      30.02S FOG
PORT ARTHUR    FAIR      74  71  91 CALM      30.00R
GALVESTON      FAIR      78  75  90 SE9       29.98R
ANGLETON       FAIR      77  73  87 CALM      29.98R
*BAY CITY      MOCLDY    75  74  96 CALM      29.96R
PALACIOS       CLOUDY    80  76  87 SE15      29.95R
$$

TXZ229>234-239>247-201200-
TEXAS COASTAL BEND AND RIO GRANDE PLAINS

CITY           SKY/WX    TMP DP  RH WIND       PRES   REMARKS
VICTORIA       MOCLDY    75  73  93 SE12      29.93F
*BEEVILLE      MOCLDY    76  74  95 SE16      29.89F THUNDER
ROCKPORT       CLOUDY    79  74  84 SE12      29.92R
*PORT ARANSAS  NOT AVBL
*PORT LAVACA   MOCLDY    76  73  90 SE9       29.94S
*INGLESIDE     CLOUDY    80  75  85 SE10      29.92S
CORPUS CHRISTI CLOUDY    78  76  93 SE12      29.91S
CORPUS NAS     CLOUDY    81  77  88 SE15      29.91R
*ROBSTOWN      CLOUDY    77  75  91 SE10      29.91S
ALICE          LGT RAIN  77  74  90 SE10      29.89R
KINGSVILLE NAS CLOUDY    79  75  87 SE13      29.89R
COTULLA        CLEAR     75  73  93 SE12      29.88R
LAREDO         PTCLDY    77  71  82 E14       29.86R
$$

TXZ248>255-201200-
DEEP SOUTH TEXAS

CITY           SKY/WX    TMP DP  RH WIND       PRES   REMARKS
BROWNSVILLE    CLOUDY    80  77  90 SE9       29.88S
PORT ISABEL    FAIR      80  74  81 SE13      29.88R
*SOUTH PADRE   NOT AVBL
HARLINGEN      LGT RAIN  78  77  96 SE13      29.87R
*HEBBRONVILLE  CLOUDY    75  72  88 SE14G21   29.90R
MCALLEN        CLOUDY    81  77  88 E13       29.86S
*WESLACO       NOT AVBL
FALFURRIAS       N/A     78  74  87 E7        29.90R
EDINBURG       MOCLDY    79  74  83 E8        29.87S
*ZAPATA        MOCLDY    78  70  77 E8        29.85R
$$

TXZ213>215-236>238-242>244-246-247-251-254-255-201200-
CMAN STATIONS

STATION/POSITION TIME  TEMP    WIND        PRES    WAVE
                       AIR SEA DIR/SP/G            HT/PER
                 (UTC) (F)     (DEG/KT/KT) (MB)    (FT/S)
SABINE PASS      1042   80 85  160/  6/  8 1017.2
SEA RIM ST PARK  1100   79     120/  7/  9 1016.4
NORTH JETTY/GLS  1042   79 80  140/ 12/ 14 1014.6
EAGLE POINT      1048   80 82  160/ 10/ 13 1015.0
MORGANS POINT    1042   80 83  150/  6/ 10 1015.1
PORT O`CONNOR    1036   79 81  130/ 14/ 16 1013.7
PORT ARANSAS     1100   79 81  120/ 16/ 19 1013.0
MALAQUITE BEACH  1036   79 82  100/ 14/ 16 1012.3
BAFFIN BAY       1042   79 82  100/ 12/ 16 1012.7
PORT ISABEL      1042   78 81  160/  4/  7 1011.9
$$




USA.gov is the U.S. government's official web portal to all federal, state and local government web resources and services.